When you browse on this site, cookies collect data to enhance your experience and personalize the content and advertising you see.
Visit our Privacy Policy to learn more. By continuing to use the site, you agree to this use of cookies and data.

Hourly Weather Erd

Today, 14 August, Friday

Time Temperature Precipitation Wind Pressure Humidity
00:00 +25°C° 0 mm 1 mps 750 mmHg 53%
01:00 +25°C° 0 mm 1 mps 750 mmHg 54%
02:00 +25°C° 0 mm 1 mps 750 mmHg 55%
03:00 +24°C° 0 mm 1 mps 750 mmHg 56%
04:00 +24°C° 0 mm 1 mps 750 mmHg 57%
05:00 +24°C° 0.1 mm 1 mps 750 mmHg 59%
06:00 +24°C° 0.1 mm 2 mps 750 mmHg 61%
07:00 +24°C° 0.1 mm 2 mps 750 mmHg 62%
08:00 +24°C° 0 mm 2 mps 750 mmHg 61%
09:00 +25°C° 0 mm 2 mps 750 mmHg 60%
10:00 +25°C° 0 mm 2 mps 750 mmHg 58%
11:00 +26°C° 0 mm 2 mps 750 mmHg 56%
12:00 +26°C° 0 mm 2 mps 750 mmHg 53%
13:00 +27°C° 0 mm 2 mps 750 mmHg 51%
14:00 +28°C° 0 mm 2 mps 749 mmHg 49%
15:00 +28°C° 0 mm 2 mps 749 mmHg 47%
16:00 +29°C° 0 mm 2 mps 749 mmHg 45%
17:00 +28°C° 0 mm 2 mps 748 mmHg 47%
18:00 +26°C° 0 mm 1 mps 748 mmHg 50%
19:00 +25°C° 0 mm 1 mps 748 mmHg 52%
20:00 +25°C° 0 mm 1 mps 749 mmHg 53%
21:00 +22°C° 0 mm 0 mps 749 mmHg 53%
22:00 +22°C° 0 mm 0 mps 749 mmHg 53%
23:00 +21°C° 0 mm 0 mps 749 mmHg 55%

Tomorrow, 15 August, Saturday

Time Temperature Precipitation Wind Pressure Humidity
00:00 +23°C° 0 mm 1 mps 749 mmHg 57%
01:00 +23°C° 0 mm 1 mps 749 mmHg 58%
02:00 +22°C° 0 mm 1 mps 749 mmHg 61%
03:00 +22°C° 0 mm 1 mps 749 mmHg 64%
04:00 +21°C° 0 mm 2 mps 748 mmHg 67%
05:00 +23°C° 0 mm 1 mps 749 mmHg 66%
06:00 +24°C° 0 mm 1 mps 749 mmHg 65%
07:00 +25°C° 0 mm 1 mps 749 mmHg 64%
08:00 +26°C° 0 mm 1 mps 749 mmHg 60%
09:00 +27°C° 0 mm 1 mps 749 mmHg 55%
10:00 +29°C° 0 mm 1 mps 749 mmHg 51%
11:00 +29°C° 0 mm 1 mps 749 mmHg 49%
12:00 +30°C° 0 mm 1 mps 749 mmHg 46%
13:00 +31°C° 0 mm 1 mps 748 mmHg 44%
14:00 +30°C° 0 mm 1 mps 748 mmHg 45%
15:00 +30°C° 0 mm 1 mps 748 mmHg 46%
16:00 +30°C° 0 mm 2 mps 748 mmHg 47%
17:00 +29°C° 0.1 mm 2 mps 748 mmHg 51%
18:00 +28°C° 0.1 mm 2 mps 747 mmHg 55%
19:00 +26°C° 0.1 mm 2 mps 747 mmHg 60%
20:00 +25°C° 0.1 mm 2 mps 748 mmHg 64%
21:00 +24°C° 0.1 mm 2 mps 748 mmHg 69%
22:00 +23°C° 0.1 mm 2 mps 748 mmHg 73%
23:00 +23°C° 0 mm 1 mps 748 mmHg 74%

Day after tomorrow, 16 August, Sunday

Time Temperature Precipitation Wind Pressure Humidity
00:00 +23°C° 0 mm 1 mps 748 mmHg 75%
01:00 +22°C° 0 mm 1 mps 748 mmHg 76%
02:00 +22°C° 0 mm 1 mps 748 mmHg 77%
03:00 +22°C° 0 mm 1 mps 748 mmHg 77%
04:00 +21°C° 0 mm 1 mps 748 mmHg 77%
05:00 +22°C° 0 mm 1 mps 748 mmHg 74%
06:00 +23°C° 0 mm 1 mps 748 mmHg 71%
07:00 +24°C° 0 mm 1 mps 749 mmHg 68%
08:00 +25°C° 0 mm 1 mps 749 mmHg 63%
09:00 +26°C° 0 mm 2 mps 749 mmHg 59%
10:00 +28°C° 0 mm 2 mps 749 mmHg 54%
11:00 +28°C° 0.1 mm 2 mps 749 mmHg 54%
12:00 +28°C° 0.1 mm 2 mps 749 mmHg 54%
13:00 +29°C° 0.1 mm 3 mps 749 mmHg 54%
14:00 +28°C° 0 mm 3 mps 749 mmHg 54%
15:00 +28°C° 0 mm 2 mps 749 mmHg 54%
16:00 +28°C° 0 mm 2 mps 748 mmHg 54%
17:00 +27°C° 0.3 mm 2 mps 748 mmHg 60%
18:00 +26°C° 0.3 mm 2 mps 748 mmHg 65%
19:00 +25°C° 0.3 mm 2 mps 749 mmHg 70%
20:00 +24°C° 0.2 mm 2 mps 749 mmHg 72%
21:00 +24°C° 0.2 mm 2 mps 749 mmHg 75%
22:00 +23°C° 0.2 mm 1 mps 749 mmHg 77%
23:00 +23°C° 0.1 mm 1 mps 749 mmHg 78%

17 August, Monday

Time Temperature Precipitation Wind Pressure Humidity
00:00 +23°C° 0.1 mm 1 mps 749 mmHg 80%
01:00 +22°C° 0.1 mm 1 mps 749 mmHg 81%
02:00 +22°C° 0.1 mm 1 mps 749 mmHg 83%
03:00 +22°C° 0.1 mm 1 mps 749 mmHg 85%
04:00 +22°C° 0.1 mm 1 mps 749 mmHg 86%
05:00 +22°C° 0.1 mm 1 mps 749 mmHg 83%
06:00 +23°C° 0.1 mm 1 mps 749 mmHg 80%
07:00 +24°C° 0.1 mm 2 mps 749 mmHg 77%
08:00 +26°C° 0.1 mm 2 mps 749 mmHg 70%
09:00 +28°C° 0.1 mm 2 mps 749 mmHg 63%
10:00 +30°C° 0.1 mm 2 mps 749 mmHg 56%
11:00 +31°C° 0.3 mm 3 mps 749 mmHg 52%
12:00 +33°C° 0.3 mm 3 mps 748 mmHg 48%
13:00 +34°C° 0.3 mm 3 mps 748 mmHg 44%
14:00 +33°C° 0 mm 3 mps 748 mmHg 45%
15:00 +33°C° 0 mm 3 mps 747 mmHg 45%
16:00 +32°C° 0 mm 2 mps 747 mmHg 46%
17:00 +31°C° 0 mm 2 mps 747 mmHg 50%
18:00 +30°C° 0 mm 2 mps 747 mmHg 53%
19:00 +28°C° 0 mm 2 mps 747 mmHg 57%
20:00 +27°C° 0.5 mm 2 mps 747 mmHg 61%
21:00 +26°C° 0.5 mm 2 mps 747 mmHg 65%
22:00 +25°C° 0.5 mm 3 mps 747 mmHg 70%
23:00 +24°C° 0.6 mm 2 mps 747 mmHg 72%

18 August, Tuesday

Time Temperature Precipitation Wind Pressure Humidity
00:00 +24°C° 0.6 mm 2 mps 746 mmHg 75%
01:00 +23°C° 0.6 mm 2 mps 746 mmHg 77%
02:00 +23°C° 0.4 mm 2 mps 746 mmHg 79%
03:00 +23°C° 0.4 mm 1 mps 746 mmHg 80%
04:00 +22°C° 0.4 mm 1 mps 746 mmHg 81%
05:00 +23°C° 0.1 mm 2 mps 746 mmHg 80%
06:00 +22°C° 0.1 mm 3 mps 746 mmHg 79%
07:00 +24°C° 0.1 mm 3 mps 747 mmHg 78%
08:00 +23°C° 0 mm 4 mps 747 mmHg 77%
09:00 +25°C° 0 mm 5 mps 747 mmHg 75%
10:00 +24°C° 0 mm 6 mps 747 mmHg 73%
11:00 +24°C° 0 mm 7 mps 747 mmHg 67%
12:00 +26°C° 0 mm 7 mps 747 mmHg 62%
13:00 +26°C° 0 mm 8 mps 747 mmHg 56%
14:00 +26°C° 0 mm 8 mps 747 mmHg 57%
15:00 +24°C° 0 mm 8 mps 747 mmHg 58%
16:00 +24°C° 0 mm 7 mps 747 mmHg 60%
17:00 +22°C° 0 mm 6 mps 747 mmHg 63%
18:00 +21°C° 0 mm 5 mps 747 mmHg 66%
19:00 +20°C° 0 mm 4 mps 747 mmHg 70%
20:00 +20°C° 0 mm 4 mps 748 mmHg 72%
21:00 +20°C° 0 mm 4 mps 748 mmHg 74%
22:00 +19°C° 0 mm 3 mps 748 mmHg 77%
23:00 +19°C° 0 mm 3 mps 748 mmHg 78%

19 August, Wednesday

Time Temperature Precipitation Wind Pressure Humidity
00:00 +19°C° 0 mm 3 mps 748 mmHg 80%
01:00 +19°C° 0 mm 3 mps 748 mmHg 81%
02:00 +19°C° 0 mm 3 mps 748 mmHg 81%
03:00 +19°C° 0 mm 4 mps 749 mmHg 81%
04:00 +18°C° 0 mm 4 mps 749 mmHg 80%
05:00 +19°C° 0 mm 4 mps 749 mmHg 77%
06:00 +20°C° 0 mm 5 mps 749 mmHg 73%
07:00 +21°C° 0 mm 5 mps 749 mmHg 70%
08:00 +22°C° 0 mm 5 mps 749 mmHg 63%
09:00 +25°C° 0 mm 5 mps 749 mmHg 57%
10:00 +26°C° 0 mm 6 mps 749 mmHg 50%
11:00 +27°C° 0 mm 6 mps 749 mmHg 48%
12:00 +28°C° 0 mm 6 mps 748 mmHg 45%
13:00 +28°C° 0 mm 6 mps 748 mmHg 42%
14:00 +28°C° 0 mm 6 mps 748 mmHg 42%
15:00 +28°C° 0 mm 6 mps 748 mmHg 42%
16:00 +28°C° 0 mm 6 mps 748 mmHg 42%
17:00 +27°C° 0 mm 5 mps 748 mmHg 46%
18:00 +25°C° 0 mm 4 mps 748 mmHg 51%
19:00 +24°C° 0 mm 3 mps 748 mmHg 56%
20:00 +22°C° 0 mm 3 mps 748 mmHg 59%
21:00 +21°C° 0 mm 3 mps 748 mmHg 62%
22:00 +21°C° 0 mm 3 mps 748 mmHg 64%
23:00 +20°C° 0 mm 3 mps 748 mmHg 66%
Show more